Location: Sihaung
(22.8641°N, 94.0549°E)
Time: 11:29:19
(UTC+00:00)

IUS-7 SRM-1 - Pass Details

Date: 03 March 2021
Orbit: 280 x 29872 km, 26.5° (Epoch: 16 April)

Event Time Altitude Azimuth Distance (km) Brightness Sun altitude
Exits shadow 22:48:36 34° 267° (W) 1,109 3.8 -17.9°
Maximum altitude 22:50:18 69° 193° (SSW) 978 3.9 -17.5°
Drops below altitude 10° 23:05:31 10° 113° (ESE) 7,412 9.7 -14.0°
Sets 23:21:02 0° 113° (ESE) 12,856 11.2 -10.4°
